This is the latest recevied weather packets stored in our database for station/object KO6LQJ. If no packets are shown the sender has not sent any weather packets the latest 10 day(s).
| Time | Temp. | Humidity | Pressure | Rain* | Wind** | Luminosity | Snow |
|---|---|---|---|---|---|---|---|
| 1777780525 | 16.67° C | 72% | 1013.6 hPa | 0 mm | - | 0 W/m² | - |
| 1777780222 | 16.67° C | 72% | 1013.4 hPa | 0 mm | - | 0 W/m² | - |
| 1777779920 | 16.67° C | 71% | 1013.6 hPa | 0 mm | - | 0 W/m² | - |
| 1777779616 | 17.22° C | 71% | 1013.3 hPa | 0 mm | - | 0 W/m² | - |
| 1777779314 | 17.22° C | 70% | 1013.3 hPa | 0 mm | - | 0 W/m² | - |
| 1777779012 | 17.78° C | 69% | 1013.1 hPa | 0 mm | - | 0 W/m² | - |
| 1777778710 | 17.78° C | 69% | 1012.9 hPa | 0 mm | - | 0 W/m² | - |
| 1777778408 | 17.78° C | 68% | 1012.8 hPa | 0 mm | - | 0 W/m² | - |
| 1777778105 | 17.78° C | 68% | 1012.7 hPa | 0 mm | - | 0 W/m² | - |
| 1777777801 | 18.33° C | 68% | 1013 hPa | 0 mm | - | 0 W/m² | - |
| 1777777498 | 18.33° C | 67% | 1012.7 hPa | 0 mm | - | 0 W/m² | - |
| 1777777195 | 18.33° C | 67% | 1012.6 hPa | 0 mm | - | 0 W/m² | - |
| 1777776892 | 18.33° C | 67% | 1012.5 hPa | 0 mm | - | 0 W/m² | - |
| 1777776589 | 18.33° C | 67% | 1012.6 hPa | 0 mm | - | 0 W/m² | - |
| 1777776285 | 18.33° C | 67% | 1012.6 hPa | 0 mm | - | 0 W/m² | - |
| 1777775983 | 18.33° C | 67% | 1012.6 hPa | 0 mm | - | 0 W/m² | - |
| 1777775680 | 18.33° C | 66% | 1012.4 hPa | 0 mm | - | 1 W/m² | - |
| 1777775377 | 18.89° C | 66% | 1012.5 hPa | 0 mm | - | 3 W/m² | - |
| 1777775072 | 18.89° C | 66% | 1012.3 hPa | 0 mm | - | 6 W/m² | - |
| 1777774768 | 18.89° C | 65% | 1012.1 hPa | 0 mm | - | 7 W/m² | - |
| 1777774464 | 18.89° C | 64% | 1012.3 hPa | 0 mm | - | 10 W/m² | - |
| 1777774162 | 19.44° C | 64% | 1012.2 hPa | 0 mm | - | 9 W/m² | - |
| 1777773859 | 19.44° C | 63% | 1012.1 hPa | 0 mm | - | 15 W/m² | - |
| 1777773555 | 20° C | 63% | 1012.2 hPa | 0 mm | - | 16 W/m² | - |
| 1777773253 | 20° C | 62% | 1011.9 hPa | 0 mm | - | 21 W/m² | - |
* Rain latest hour (hover to see other rain measurements)
** Current wind speed in m/s (hover to see current wind gust speed)